Weather History for Red Wing, MN

Change the Weather History Date:

Tuesday, October 1, 2013

  Actual Average Record
Temperature  
Mean Temperature 60 °F -  
Max Temperature 77 °F 63 °F 84 °F (2005)
Min Temperature 44 °F 40 °F 26 °F (2003)
Degree Days  
Heating Degree Days 4    
Growing Degree Days 10 (Base 50)    
Moisture  
Dew Point 44 °F    
Average Humidity 50    
Maximum Humidity 93    
Minimum Humidity 18    
Precipitation  
Precipitation 0.00 in - - ()
Sea Level Pressure  
Sea Level Pressure 29.80 in    
Wind  
Wind Speed 7 mph (West)    
Max Wind Speed 15 mph    
Max Gust Speed 22 mph    
Visibility 10 miles    
Events      
Averages and records for this station are not official NWS values.
T = Trace of Precipitation, MM = Missing Value Source: NWS Daily Summary

Daily Weather History Graph

Daily Weather History Graph

Search for Another Location

Airport:

Trip Planner

Search our weather history database for the weather conditions in past years. The results will help you decide how hot, cold, wet, or windy it might be!

Date:

Astronomy

Oct. 01, 2013 Rise Set
Actual Time 7:08 AM CDT 6:50 PM CDT
Civil Twilight 6:39 AM CDT 7:19 PM CDT
Nautical Twilight 6:05 AM CDT 7:52 PM CDT
Astronomical Twilight 5:30 AM CDT 8:27 PM CDT
Moon 3:35 AM CDT (10/1) 4:59 PM CDT (10/1)
Length of Visible Light 12h 39m
Length of Day
11h 41m
Waning Crescent, 12% of the Moon is Illuminated
Oct 1
Waning Crescent
Oct 4
New
Oct 11
First Quarter
Oct 18
Full
Oct 26
Last Quarter

Hourly Weather History & Observations

Time (CDT) Temp. Windchill Dew Point Humidity Pressure Visibility Wind Dir Wind Speed Gust Speed Precip Events Conditions
12:15 AM 68.0 °F - 48.2 °F 49% 29.67 in 10.0 mi SW 8.1 mph - N/A   Clear
12:35 AM 69.8 °F - 48.2 °F 46% 29.67 in 10.0 mi SW 3.5 mph - N/A   Clear
12:55 AM 68.0 °F - 48.2 °F 49% 29.67 in 10.0 mi SSW 5.8 mph - N/A   Clear
1:15 AM 68.0 °F - 48.2 °F 49% 29.67 in 10.0 mi SSW 5.8 mph - N/A   Clear
1:35 AM 68.0 °F - 48.2 °F 49% 29.67 in 10.0 mi SSW 4.6 mph - N/A   Clear
1:55 AM 66.2 °F - 48.2 °F 52% 29.67 in 10.0 mi SSW 4.6 mph - N/A   Clear
2:15 AM 66.2 °F - 48.2 °F 52% 29.66 in 10.0 mi SSW 4.6 mph - N/A   Clear
2:35 AM 66.2 °F - 48.2 °F 52% 29.66 in 10.0 mi South 6.9 mph - N/A   Clear
2:55 AM 66.2 °F - 48.2 °F 52% 29.66 in 10.0 mi South 5.8 mph - N/A   Clear
3:15 AM 66.2 °F - 50.0 °F 56% 29.65 in 10.0 mi South 8.1 mph 17.3 mph N/A   Clear
3:35 AM 64.4 °F - 50.0 °F 59% 29.66 in 10.0 mi South 5.8 mph - N/A   Clear
3:55 AM 64.4 °F - 50.0 °F 59% 29.66 in 10.0 mi South 4.6 mph - N/A   Clear
4:14 AM 66.2 °F - 50.0 °F 56% 29.65 in 10.0 mi SSE 4.6 mph - N/A   Clear
4:35 AM 64.4 °F - 50.0 °F 59% 29.65 in 10.0 mi South 5.8 mph - N/A   Clear
4:55 AM 64.4 °F - 50.0 °F 59% 29.66 in 10.0 mi South 4.6 mph - N/A   Clear
5:14 AM 66.2 °F - 50.0 °F 56% 29.66 in 10.0 mi SSW 5.8 mph - N/A   Clear
5:35 AM 64.4 °F - 50.0 °F 59% 29.66 in 10.0 mi WSW 8.1 mph - N/A   Clear
5:55 AM 64.4 °F - 50.0 °F 59% 29.67 in 10.0 mi WSW 9.2 mph 16.1 mph N/A   Clear
6:14 AM 64.4 °F - 51.8 °F 64% 29.67 in 10.0 mi SW 11.5 mph - N/A   Clear
6:35 AM 64.4 °F - 51.8 °F 64% 29.67 in 10.0 mi WSW 10.4 mph - N/A   Clear
6:55 AM 64.4 °F - 51.8 °F 64% 29.68 in 10.0 mi WSW 8.1 mph - N/A   Clear
7:14 AM 62.6 °F - 51.8 °F 68% 29.69 in 10.0 mi Calm Calm - N/A   Clear
7:35 AM 62.6 °F - 51.8 °F 68% 29.69 in 10.0 mi Calm Calm - N/A   Clear
7:55 AM 62.6 °F - 51.8 °F 68% 29.71 in 10.0 mi Calm Calm - N/A   Clear
8:14 AM 64.4 °F - 51.8 °F 64% 29.72 in 10.0 mi Calm Calm - N/A   Clear
8:35 AM 64.4 °F - 53.6 °F 68% 29.73 in 10.0 mi WNW 3.5 mph - N/A   Clear
8:55 AM 68.0 °F - 53.6 °F 60% 29.75 in 10.0 mi West 10.4 mph - N/A   Clear
9:14 AM 69.8 °F - 53.6 °F 56% 29.76 in 10.0 mi WNW 11.5 mph 18.4 mph N/A   Clear
9:35 AM 68.0 °F - 51.8 °F 56% 29.77 in 10.0 mi WNW 11.5 mph 18.4 mph N/A   Clear
9:55 AM 69.8 °F - 51.8 °F 53% 29.78 in 10.0 mi WNW 9.2 mph - N/A   Clear
10:14 AM 69.8 °F - 51.8 °F 53% 29.79 in 10.0 mi WNW 9.2 mph - N/A   Clear
10:35 AM 71.6 °F - 46.4 °F 41% 29.80 in 10.0 mi NW 10.4 mph 17.3 mph N/A   Clear
10:55 AM 73.4 °F - 44.6 °F 36% 29.80 in 10.0 mi NW 12.7 mph 19.6 mph N/A   Clear
11:15 AM 73.4 °F - 44.6 °F 36% 29.81 in 10.0 mi WNW 12.7 mph 20.7 mph N/A   Clear
11:35 AM 73.4 °F - 44.6 °F 36% 29.82 in 10.0 mi NW 11.5 mph 16.1 mph N/A   Clear
11:54 AM 73.4 °F - 44.6 °F 36% 29.83 in 10.0 mi NW 10.4 mph 17.3 mph N/A   Clear
12:15 PM 75.2 °F - 42.8 °F 31% 29.84 in 10.0 mi WNW 12.7 mph - N/A   Clear
12:35 PM 75.2 °F - 41.0 °F 29% 29.84 in 10.0 mi West 13.8 mph - N/A   Clear
12:54 PM 75.2 °F - 41.0 °F 29% 29.85 in 10.0 mi West 13.8 mph - N/A   Clear
1:15 PM 75.2 °F - 37.4 °F 25% 29.85 in 10.0 mi WNW 12.7 mph 19.6 mph N/A   Clear
1:35 PM 75.2 °F - 35.6 °F 24% 29.85 in 10.0 mi WNW 11.5 mph 21.9 mph N/A   Clear
1:54 PM 75.2 °F - 35.6 °F 24% 29.85 in 10.0 mi WNW 12.7 mph 18.4 mph N/A   Clear
2:15 PM 75.2 °F - 35.6 °F 24% 29.85 in 10.0 mi WNW 10.4 mph - N/A   Clear
2:35 PM 75.2 °F - 37.4 °F 25% 29.85 in 10.0 mi WNW 8.1 mph - N/A   Clear
2:55 PM 75.2 °F - 35.6 °F 24% 29.86 in 10.0 mi WNW 13.8 mph 19.6 mph N/A   Clear
3:14 PM 77.0 °F - 35.6 °F 22% 29.86 in 10.0 mi WNW 13.8 mph 18.4 mph N/A   Clear
3:35 PM 75.2 °F - 33.8 °F 22% 29.86 in 10.0 mi WNW 9.2 mph - N/A   Clear
3:55 PM 77.0 °F - 33.8 °F 21% 29.86 in 10.0 mi WNW 10.4 mph - N/A   Clear
4:14 PM 77.0 °F - 32.0 °F 19% 29.86 in 10.0 mi WNW 11.5 mph 18.4 mph N/A   Clear
4:35 PM 75.2 °F - 32.0 °F 21% 29.87 in 10.0 mi WNW 10.4 mph 18.4 mph N/A   Clear
4:55 PM 77.0 °F - 30.2 °F 18% 29.87 in 10.0 mi West 15.0 mph - N/A   Clear
5:14 PM 75.2 °F - 32.0 °F 21% 29.88 in 10.0 mi West 11.5 mph 18.4 mph N/A   Clear
5:35 PM 75.2 °F - 33.8 °F 22% 29.89 in 10.0 mi WNW 11.5 mph 17.3 mph N/A   Clear
5:55 PM 73.4 °F - 33.8 °F 23% 29.89 in 10.0 mi WNW 9.2 mph - N/A   Clear
6:14 PM 73.4 °F - 33.8 °F 23% 29.89 in 10.0 mi WNW 6.9 mph - N/A   Clear
6:35 PM 69.8 °F - 33.8 °F 27% 29.89 in 10.0 mi WNW 4.6 mph - N/A   Clear
6:55 PM 68.0 °F - 33.8 °F 28% 29.90 in 10.0 mi Calm Calm - N/A   Clear
7:14 PM 62.6 °F - 37.4 °F 39% 29.90 in 10.0 mi Calm Calm - N/A   Clear
7:35 PM 59.0 °F - 39.2 °F 48% 29.91 in 10.0 mi North 3.5 mph - N/A   Clear
7:55 PM 55.4 °F - 42.8 °F 63% 29.92 in 10.0 mi North 3.5 mph - N/A   Clear
8:14 PM 53.6 °F - 42.8 °F 67% 29.93 in 10.0 mi Calm Calm - N/A   Clear
8:35 PM 51.8 °F - 42.8 °F 71% 29.93 in 10.0 mi NNW 3.5 mph - N/A   Clear
8:55 PM 53.6 °F - 42.8 °F 67% 29.94 in 10.0 mi Calm Calm - N/A   Clear
9:15 PM 51.8 °F - 42.8 °F 71% 29.94 in 5.0 mi Calm Calm - N/A   Haze
9:35 PM 48.2 °F - 42.8 °F 82% 29.95 in 10.0 mi North 3.5 mph - N/A   Clear
9:55 PM 50.0 °F - 42.8 °F 76% 29.95 in 10.0 mi Calm Calm - N/A   Clear
10:15 PM 48.2 °F - 42.8 °F 82% 29.96 in 10.0 mi North 3.5 mph - N/A   Clear
10:35 PM 48.2 °F - 42.8 °F 82% 29.97 in 10.0 mi North 4.6 mph - N/A   Clear
10:54 PM 48.2 °F - 42.8 °F 82% 29.97 in 10.0 mi Calm Calm - N/A   Clear
11:15 PM 46.4 °F - 42.8 °F 87% 29.98 in 10.0 mi Calm Calm - N/A   Clear
11:35 PM 44.6 °F 43.1 °F 42.8 °F 93% 29.98 in 10.0 mi North 3.5 mph - N/A   Clear
11:54 PM 44.6 °F 43.1 °F 42.8 °F 93% 29.99 in 10.0 mi North 3.5 mph - N/A   Clear